Time,TemperatureF,DewpointF,PressureIn,WindDirection,WindDirectionDegrees,WindSpeedMPH,WindSpeedGustMPH,Humidity,HourlyPrecipIn,Conditions,Clouds,dailyrainin,SoftwareType,DateUTC
2013-08-07 21:24:00,70.9,48.5,29.74,ESE,112,0.0,0.0,45,0.00,,---,0.00,VWS V14.01,2013-08-08 04:24:00,
2013-08-07 21:25:00,70.9,48.5,29.74,ESE,112,0.0,0.0,45,0.00,,---,0.00,VWS V14.01,2013-08-08 04:25:00,
2013-08-07 21:30:00,70.5,48.2,29.74,ESE,112,0.0,0.0,45,0.00,,---,0.00,VWS V14.01,2013-08-08 04:30:00,
2013-08-07 21:35:00,70.3,48.0,29.74,ESE,112,0.0,0.0,45,0.00,,---,0.00,VWS V14.01,2013-08-08 04:35:00,
2013-08-07 21:40:00,70.2,48.4,29.74,ESE,112,0.0,0.0,46,0.00,,---,0.00,VWS V14.01,2013-08-08 04:40:00,
2013-08-07 21:45:00,69.8,48.1,29.74,ESE,112,0.0,0.0,46,0.00,,---,0.00,VWS V14.01,2013-08-08 04:45:00,
2013-08-07 21:50:00,69.6,48.5,29.74,ESE,112,0.0,0.0,47,0.00,,---,0.00,VWS V14.01,2013-08-08 04:50:00,
2013-08-07 21:55:00,69.4,48.3,29.74,ESE,112,0.0,0.0,47,0.00,,---,0.00,VWS V14.01,2013-08-08 04:55:00,
2013-08-07 22:00:00,69.3,48.2,29.74,ESE,112,0.0,0.0,47,0.00,,---,0.00,VWS V14.01,2013-08-08 05:00:00,
2013-08-07 22:05:00,69.1,48.6,29.76,SE,135,0.0,0.0,48,0.00,,---,0.00,VWS V14.01,2013-08-08 05:05:00,
2013-08-07 22:10:00,68.7,48.3,29.76,ESE,112,0.0,0.0,48,0.00,,---,0.00,VWS V14.01,2013-08-08 05:10:00,
2013-08-07 22:15:00,68.5,48.6,29.76,ESE,112,0.0,0.0,49,0.00,,---,0.00,VWS V14.01,2013-08-08 05:15:00,
2013-08-07 22:20:00,68.4,48.5,29.76,ESE,112,0.0,0.0,49,0.00,,---,0.00,VWS V14.01,2013-08-08 05:20:00,
2013-08-07 22:25:00,68.2,48.3,29.76,ESE,112,0.0,0.0,49,0.00,,---,0.00,VWS V14.01,2013-08-08 05:25:00,
2013-08-07 22:30:00,68.0,48.7,29.76,ESE,112,0.0,0.0,50,0.00,,---,0.00,VWS V14.01,2013-08-08 05:30:00,
2013-08-07 22:35:00,67.8,48.5,29.76,ESE,112,0.0,0.0,50,0.00,,---,0.00,VWS V14.01,2013-08-08 05:35:00,
2013-08-07 22:40:00,67.6,48.9,29.76,ESE,112,0.0,0.0,51,0.00,,---,0.00,VWS V14.01,2013-08-08 05:40:00,
2013-08-07 22:45:00,67.5,48.7,29.76,ESE,112,0.0,0.0,51,0.00,,---,0.00,VWS V14.01,2013-08-08 05:45:00,
2013-08-07 22:50:00,67.3,49.1,29.76,ESE,112,0.0,0.0,52,0.00,,---,0.00,VWS V14.01,2013-08-08 05:50:00,
2013-08-07 22:55:00,67.1,49.4,29.76,ESE,112,0.0,0.0,53,0.00,,---,0.00,VWS V14.01,2013-08-08 05:55:00,
2013-08-07 23:00:00,66.9,48.7,29.76,SSE,158,0.0,0.0,52,0.00,,---,0.00,VWS V14.01,2013-08-08 06:00:00,
2013-08-07 23:05:00,66.7,49.1,29.76,SSE,158,0.0,0.0,53,0.00,,---,0.00,VWS V14.01,2013-08-08 06:05:00,
2013-08-07 23:10:00,66.7,49.6,29.76,ESE,112,0.0,0.0,54,0.00,,---,0.00,VWS V14.01,2013-08-08 06:10:00,
2013-08-07 23:15:00,66.6,49.4,29.76,ESE,112,0.0,0.0,54,0.00,,---,0.00,VWS V14.01,2013-08-08 06:15:00,
2013-08-07 23:20:00,66.2,49.1,29.76,SSE,158,0.0,0.0,54,0.00,,---,0.00,VWS V14.01,2013-08-08 06:20:00,
2013-08-07 23:25:00,66.2,49.6,29.76,ESE,112,0.0,0.0,55,0.00,,---,0.00,VWS V14.01,2013-08-08 06:25:00,
2013-08-07 23:30:00,66.0,49.9,29.76,ESE,112,0.0,0.0,56,0.00,,---,0.00,VWS V14.01,2013-08-08 06:30:00,
2013-08-07 23:35:00,66.0,49.9,29.79,ESE,112,0.0,0.0,56,0.00,,---,0.00,VWS V14.01,2013-08-08 06:35:00,
2013-08-07 23:40:00,65.8,49.7,29.79,ESE,112,0.0,0.0,56,0.00,,---,0.00,VWS V14.01,2013-08-08 06:40:00,
2013-08-07 23:45:00,65.7,49.6,29.79,SSE,158,0.0,0.0,56,0.00,,---,0.00,VWS V14.01,2013-08-08 06:45:00,
2013-08-07 23:50:00,65.7,50.0,29.76,ESE,112,0.0,0.0,57,0.00,,---,0.00,VWS V14.01,2013-08-08 06:50:00,
2013-08-07 23:55:00,65.5,49.9,29.76,ESE,112,0.0,0.0,57,0.00,,---,0.00,VWS V14.01,2013-08-08 06:55:00,